Newport Airport, OR

4:52 PM PDT on April 23, 2017 (GMT -0700)
Newport Municipal

Weather History for KONP - December, 2013

Change the Weather History Date:

Thursday, December 12, 2013

  Actual Average Record
Temperature  
Mean Temperature 40 °F -  
Max Temperature 48 °F 49 °F 60 °F (2010)
Min Temperature 32 °F 41 °F 28 °F (2011)
Degree Days  
Heating Degree Days 25    
Moisture  
Dew Point 39 °F    
Average Humidity 90    
Maximum Humidity 100    
Minimum Humidity 76    
Precipitation  
Precipitation 0.28 in - - ()
Sea Level Pressure  
Sea Level Pressure 30.18 in    
Wind  
Wind Speed 10 mph (SSE)    
Max Wind Speed 21 mph    
Max Gust Speed 26 mph    
Visibility 7 miles    
Events Rain    
Averages and records for this station are not official NWS values.
T = Trace of Precipitation, MM = Missing Value Source: NWS Daily Summary

Daily Weather History Graph

Daily Weather History Graph

Search for Another Location

Airport or City:

Trip Planner

Search our weather history database for the weather conditions in past years. The results will help you decide how hot, cold, wet, or windy it might be!

Date:

Astronomy

Dec. 12, 2013 Rise Set
Actual Time 7:44 AM PST 4:36 PM PST
Civil Twilight 7:10 AM PST 5:09 PM PST
Nautical Twilight 6:33 AM PST 5:46 PM PST
Astronomical Twilight 5:58 AM PST 6:21 PM PST
Moon 1:54 PM PST (12/12) 3:04 AM PST (12/12)
Length of Visible Light 9h 59m
Length of Day
8h 52m
Waxing Gibbous, 81% of the Moon is Illuminated
Dec 12
Waxing Gibbous
Dec 17
Full
Dec 25
Last Quarter
Jan 1
New
Jan 7
First Quarter

Hourly Weather History & Observations

Time (PST) Temp. Windchill Dew Point Humidity Pressure Visibility Wind Dir Wind Speed Gust Speed Precip Events Conditions
12:15 AM 33.8 °F 27.7 °F 30.2 °F 87% 30.19 in 10.0 mi East 6.9 mph - N/A   Clear
12:35 AM 33.8 °F 29.6 °F 30.2 °F 87% 30.19 in 10.0 mi East 4.6 mph - N/A   Clear
12:55 AM 32.0 °F 25.6 °F 30.2 °F 93% 30.19 in 10.0 mi East 6.9 mph - N/A   Clear
1:15 AM 32.0 °F 25.6 °F 30.2 °F 93% 30.20 in 10.0 mi East 6.9 mph - N/A   Clear
1:35 AM 33.8 °F 25.8 °F 32.0 °F 93% 30.19 in 10.0 mi East 10.4 mph - N/A   Clear
1:55 AM 33.8 °F 26.4 °F 32.0 °F 93% 30.20 in 10.0 mi East 9.2 mph - N/A   Clear
2:15 AM 33.8 °F 27.0 °F 32.0 °F 93% 30.20 in 10.0 mi East 8.1 mph - N/A   Clear
2:35 AM 33.8 °F 25.8 °F 32.0 °F 93% 30.20 in 10.0 mi East 10.4 mph - N/A   Clear
2:55 AM 33.8 °F 26.4 °F 32.0 °F 93% 30.19 in 10.0 mi East 9.2 mph - N/A   Clear
3:15 AM 33.8 °F 26.4 °F 32.0 °F 93% 30.19 in 10.0 mi East 9.2 mph - N/A   Clear
3:35 AM 33.8 °F 26.4 °F 32.0 °F 93% 30.18 in 10.0 mi East 9.2 mph - N/A   Clear
3:55 AM 33.8 °F 26.4 °F 32.0 °F 93% 30.17 in 10.0 mi East 9.2 mph - N/A   Clear
4:15 AM 33.8 °F 26.4 °F 32.0 °F 93% 30.16 in 10.0 mi East 9.2 mph - N/A   Clear
4:35 AM 33.8 °F 28.6 °F 32.0 °F 93% 30.17 in 10.0 mi East 5.8 mph - N/A   Clear
4:55 AM 33.8 °F 29.6 °F 32.0 °F 93% 30.18 in 10.0 mi East 4.6 mph - N/A   Clear
5:15 AM 33.8 °F - 32.0 °F 93% 30.19 in 10.0 mi Calm Calm - N/A   Clear
5:35 AM 32.0 °F 27.5 °F 30.2 °F 93% 30.19 in 10.0 mi East 4.6 mph - N/A   Clear
5:55 AM 32.0 °F 28.7 °F 30.2 °F 93% 30.21 in 10.0 mi East 3.5 mph - N/A   Clear
6:15 AM 33.8 °F 27.0 °F 32.0 °F 93% 30.19 in 10.0 mi SE 8.1 mph - N/A   Mostly Cloudy
6:35 AM 35.6 °F 29.2 °F 32.0 °F 87% 30.19 in 10.0 mi ESE 8.1 mph - N/A   Overcast
6:55 AM 37.4 °F 31.4 °F 33.8 °F 87% 30.17 in 10.0 mi SE 8.1 mph - N/A   Scattered Clouds
7:15 AM 41.0 °F 35.8 °F 35.6 °F 81% 30.18 in 10.0 mi SSE 8.1 mph - N/A   Scattered Clouds
7:35 AM 41.0 °F 36.4 °F 35.6 °F 81% 30.19 in 10.0 mi South 6.9 mph - N/A   Overcast
7:55 AM 42.8 °F 37.0 °F 37.4 °F 81% 30.18 in 10.0 mi SSE 10.4 mph - N/A   Overcast
8:15 AM 42.8 °F 38.6 °F 37.4 °F 81% 30.17 in 10.0 mi SE 6.9 mph - N/A   Overcast
8:35 AM 42.8 °F 37.0 °F 37.4 °F 81% 30.18 in 10.0 mi SSE 10.4 mph - N/A   Mostly Cloudy
8:55 AM 42.8 °F 38.6 °F 37.4 °F 81% 30.18 in 10.0 mi SSE 6.9 mph - N/A   Overcast
9:15 AM 42.8 °F 38.0 °F 37.4 °F 81% 30.18 in 10.0 mi SSE 8.1 mph - N/A   Overcast
9:35 AM 44.6 °F 39.2 °F 37.4 °F 76% 30.19 in 10.0 mi SSE 10.4 mph - N/A   Mostly Cloudy
9:55 AM 44.6 °F 40.2 °F 37.4 °F 76% 30.19 in 10.0 mi SSE 8.1 mph - N/A   Mostly Cloudy
10:15 AM 44.6 °F 40.2 °F 37.4 °F 76% 30.19 in 10.0 mi SSE 8.1 mph - N/A   Overcast
10:35 AM 44.6 °F 39.2 °F 37.4 °F 76% 30.19 in 10.0 mi SSE 10.4 mph - N/A   Overcast
10:55 AM 46.4 °F 42.9 °F 39.2 °F 76% 30.18 in 10.0 mi SSE 6.9 mph - N/A   Overcast
11:15 AM 46.4 °F 41.9 °F 39.2 °F 76% 30.18 in 10.0 mi South 9.2 mph - N/A   Overcast
11:35 AM 46.4 °F 42.4 °F 39.2 °F 76% 30.17 in 10.0 mi South 8.1 mph - N/A   Overcast
11:55 AM 46.4 °F 42.9 °F 39.2 °F 76% 30.15 in 10.0 mi SSE 6.9 mph - N/A Rain Light Rain
12:15 PM 46.4 °F 41.5 °F 41.0 °F 81% 30.14 in 10.0 mi SSE 10.4 mph 16.1 mph N/A Rain Light Rain
12:35 PM 48.2 °F - 41.0 °F 76% 30.14 in 10.0 mi South 9.2 mph - N/A Rain Light Rain
12:55 PM 48.2 °F - 41.0 °F 76% 30.14 in 10.0 mi South 6.9 mph - N/A Rain Light Rain
1:15 PM 46.4 °F 40.7 °F 42.8 °F 87% 30.13 in 10.0 mi South 12.7 mph 16.1 mph N/A   Drizzle
1:35 PM 46.4 °F 40.4 °F 42.8 °F 87% 30.14 in 4.0 mi South 13.8 mph - 0.01 in Rain Rain
1:55 PM 44.6 °F 37.4 °F 42.8 °F 93% 30.13 in 3.0 mi South 16.1 mph 21.9 mph 0.07 in Rain Heavy Rain
2:15 PM 44.6 °F 36.9 °F 42.8 °F 93% 30.13 in 4.0 mi South 18.4 mph 23.0 mph 0.05 in Rain Rain
2:35 PM 44.6 °F 36.4 °F 42.8 °F 93% 30.13 in 3.0 mi South 20.7 mph 26.5 mph 0.10 in Rain Rain
2:55 PM 44.6 °F 36.9 °F 42.8 °F 93% 30.13 in 3.0 mi South 18.4 mph 26.5 mph 0.14 in Rain Rain
3:15 PM 44.6 °F 38.1 °F 42.8 °F 93% 30.13 in 4.0 mi South 13.8 mph 23.0 mph 0.04 in Rain Rain
3:35 PM 44.6 °F 37.2 °F 42.8 °F 93% - 7.0 mi South 17.3 mph 23.0 mph 0.06 in Rain Light Rain
3:55 PM 44.6 °F 37.8 °F 42.8 °F 93% 30.15 in 2.0 mi SSW 15.0 mph 23.0 mph 0.06 in   Drizzle
4:15 PM 44.6 °F 36.6 °F 42.8 °F 93% 30.15 in 1.5 mi South 19.6 mph 23.0 mph N/A Rain Light Rain
4:35 PM 44.6 °F 37.2 °F 42.8 °F 93% 30.15 in 2.0 mi South 17.3 mph 25.3 mph N/A Rain Rain
4:55 PM 44.6 °F 37.4 °F 44.6 °F 100% 30.15 in 2.5 mi South 16.1 mph 24.2 mph N/A   Drizzle
5:15 PM 44.6 °F 36.9 °F 44.6 °F 100% 30.15 in 3.0 mi South 18.4 mph 21.9 mph 0.01 in Rain Rain
5:35 PM 44.6 °F 36.9 °F 44.6 °F 100% 30.16 in 3.0 mi South 18.4 mph 24.2 mph 0.01 in   Drizzle
5:55 PM 44.6 °F 37.4 °F 44.6 °F 100% 30.16 in 4.0 mi South 16.1 mph 21.9 mph 0.01 in   Light Drizzle
6:15 PM 44.6 °F 37.4 °F 44.6 °F 100% 30.16 in 5.0 mi South 16.1 mph 23.0 mph N/A   Overcast
6:35 PM 46.4 °F 39.8 °F 44.6 °F 93% 30.16 in 5.0 mi South 16.1 mph 26.5 mph N/A   Overcast
6:55 PM 46.4 °F 39.5 °F 44.6 °F 93% 30.17 in 5.0 mi South 17.3 mph 23.0 mph N/A   Overcast
7:15 PM 46.4 °F 39.5 °F 44.6 °F 93% 30.17 in 4.0 mi South 17.3 mph 21.9 mph N/A   Overcast
7:35 PM 46.4 °F 39.2 °F 44.6 °F 93% 30.18 in 4.0 mi South 18.4 mph 25.3 mph N/A   Overcast
7:55 PM 46.4 °F 40.1 °F 44.6 °F 93% 30.19 in 4.0 mi South 15.0 mph - N/A   Overcast
8:15 PM 46.4 °F 39.8 °F 44.6 °F 93% 30.19 in 2.5 mi South 16.1 mph 19.6 mph N/A   Overcast
8:35 PM 46.4 °F 40.7 °F 44.6 °F 93% 30.20 in 3.0 mi South 12.7 mph 21.9 mph N/A   Light Drizzle
8:55 PM 46.4 °F 39.5 °F 44.6 °F 93% - 4.0 mi South 17.3 mph - N/A   Overcast
9:15 PM 46.4 °F 40.1 °F 44.6 °F 93% 30.20 in 5.0 mi South 15.0 mph 21.9 mph N/A   Overcast
9:35 PM 46.4 °F 40.4 °F 44.6 °F 93% 30.20 in 7.0 mi South 13.8 mph - N/A   Overcast
9:55 PM 46.4 °F 39.2 °F 44.6 °F 93% 30.20 in 4.0 mi South 18.4 mph 25.3 mph N/A   Overcast
10:15 PM 46.4 °F 39.2 °F 46.4 °F 100% 30.21 in 4.0 mi South 18.4 mph 23.0 mph N/A   Overcast
10:35 PM 46.4 °F 40.1 °F 46.4 °F 100% 30.21 in 7.0 mi South 15.0 mph 20.7 mph N/A   Overcast
10:55 PM 46.4 °F 39.2 °F 46.4 °F 100% 30.22 in 4.0 mi South 18.4 mph 25.3 mph N/A   Overcast
11:15 PM 46.4 °F 39.5 °F 46.4 °F 100% 30.23 in 4.0 mi South 17.3 mph 21.9 mph N/A   Overcast
11:35 PM 46.4 °F 39.8 °F 46.4 °F 100% 30.23 in 4.0 mi South 16.1 mph 25.3 mph N/A   Overcast
11:55 PM 46.4 °F 40.4 °F 46.4 °F 100% 30.23 in 5.0 mi South 13.8 mph 21.9 mph N/A   Overcast